Volver al catálogo

SL-8 R/B

ActivoPO
NORAD 10138·ROCKET BODY·🇷🇺 Russia

Lanzado Jul 8, 1977 desde Plesetsk Cosmodrome

Loading…

Próximos Pases (próximas 24 horas)

TLE

ActualizadoSource: Space-Track

Época: Sep 14, 2026, 07:08 UTC

1 10138U 77062B   26257.29766441  .00000151  00000-0  14453-3 0  9993
2 10138  82.9351 267.6538 0020404 352.3833  26.7228 13.74244067462802

Sigue SL-8 R/B en tiempo real con AllMySat

Download on the App Store